Location: Clinton NY
(43.0598°N, 75.3602°W)
Time: 07:03:25
(UTC-04:00)

Daily predictions for brighter satellites

Satellite Brightness Start Highest point End
(mag) Time Altitude Azimuth Time Altitude Azimuth Time Altitude Azimuth
Cosmos 1624 Rocket 4.4 18:36:50 10° NNW 18:42:04 72° WSW 18:47:16 10° S
CZ-4 R/B 1.6 18:39:03 10° SSE 18:43:16 84° WSW 18:47:27 10° NNW
Cosmos 1626 2.1 18:40:28 10° N 18:44:10 59° E 18:47:50 10° SSE
SL-14 R/B 4.3 18:40:32 10° NNW 18:44:16 50° W 18:48:01 10° S
CZ-2C R/B 3.7 18:40:27 10° NNE 18:45:01 87° ESE 18:49:28 10° SSW
Cosmos 2366 rocket 4.0 18:39:32 10° S 18:45:42 71° E 18:51:51 10° NNE
BREEZE-M DEB (TANK) 2.4 18:44:00 10° SSW 18:45:55 25° SE 18:47:43 10° E
ALOS 3.0 18:43:38 10° SE 18:47:45 32° ENE 18:51:53 10° N
Cosmos 2360 Rocket 2.2 18:46:02 10° NNW 18:51:41 67° ENE 18:57:19 10° SE
APEX 4.3 18:52:14 10° SSE 18:54:21 16° ESE 18:55:47 12° ENE
COSMOS 2428 3.4 18:49:42 10° N 18:54:51 34° NE 18:59:59 10° ESE
Cosmos 2333 Rocket 3.5 18:53:28 10° N 18:57:47 21° NE 19:01:34 12° E
SL-8 Rocket 4.4 18:52:52 10° SSW 18:59:01 70° W 19:05:16 10° N
Cosmos 2322 Rocket 3.5 18:54:23 10° NW 18:59:42 45° WSW 19:04:59 10° S
COSMO-SKYMED 1 2.6 18:56:11 10° NNE 19:00:30 61° E 19:04:48 10° S
BREEZE-M DEB (TANK) 3.7 18:56:46 10° WNW 19:00:40 72° NNE 19:15:42 10° ESE
Cosmos 1833 4.2 18:55:21 10° SSW 19:01:01 74° ESE 19:06:40 10° NNE
MONITOR-E 4.1 18:58:29 10° SSE 19:01:32 65° ENE 19:04:36 10° N
Cosmos 2219 4.1 18:59:13 10° SSE 19:03:57 27° ESE 19:08:42 10° NE
Sich 1 4.5 19:02:31 10° NNE 19:05:33 18° ENE 19:07:31 14° ESE
Abrixas rocket 3.4 19:09:46 10° WNW 19:12:48 33° N 19:14:57 16° NE
Cosmos 1805 Rocket 4.2 19:10:54 10° N 19:14:51 32° ENE 19:18:49 10° SE
Cosmos 1315 Rocket 2.8 19:12:54 10° N 19:16:59 71° E 19:21:04 10° SSE
FENGYUN 3A 3.6 19:12:36 10° SSE 19:17:54 63° ENE 19:23:16 10° N
Cosmos 44 3.5 19:16:15 10° S 19:20:17 38° ESE 19:23:08 17° NE
EO 1 Del DPAF 3.8 19:16:34 10° N 19:20:22 60° WNW 19:24:09 10° SSW
Meteor 2-1 Rocket 4.3 19:16:26 10° S 19:22:13 89° WNW 19:28:10 10° N
Cosmos 1821 Rocket 4.2 19:16:39 10° SSE 19:22:27 45° E 19:28:21 10° NNE
Cosmos 1666 Rocket 4.5 19:20:02 10° NNE 19:23:42 26° ENE 19:25:01 22° ESE
Cosmos 2322 3.8 19:18:42 10° NNW 19:24:28 85° WSW 19:30:10 10° SSE
YAOGAN 1 3.9 19:20:30 10° S 19:24:36 42° W 19:28:45 10° NNW
Cosmos 1934 Rocket 4.5 19:20:38 10° SSE 19:26:22 37° E 19:32:08 10° NNE
USA 267 4.2 19:25:18 19° E 19:28:24 27° SE 19:33:45 10° S
Cosmos 2151 3.9 19:26:58 10° NNW 19:31:08 51° W 19:35:14 10° S
Cosmos 1633 Rocket 4.0 19:27:26 10° NNE 19:31:11 26° ENE 19:31:28 26° E
Cosmos 1269 Rocket 4.2 19:27:34 10° S 19:32:37 49° ESE 19:37:42 10° NNE
DMSP B5D1-3 4.4 19:28:12 10° NNE 19:33:22 79° ESE 19:38:30 10° S
SPOT 3 Rocket 4.0 19:29:26 10° S 19:34:35 65° WSW 19:39:48 10° NNW
RESURS DK-1 3.6 19:36:00 10° NW 19:39:55 42° WSW 19:43:48 10° S
Cosmos 2219 Rocket 2.4 19:34:56 10° NNW 19:40:19 46° ENE 19:43:16 25° ESE
Lacrosse 5 rocket 3.8 19:38:36 10° NW 19:40:50 14° N 19:43:02 10° NNE
SJ-6B 3.1 19:40:35 38° E 19:41:00 40° ENE 19:44:31 10° N
Cosmos 468 4.5 19:36:01 10° SSW 19:41:14 87° WNW 19:46:30 10° NNE
FREGAT/IRIS 2.5 19:42:27 59° E 19:42:34 59° ENE 19:45:31 10° N
Cosmos 44 Rocket 3.1 19:39:11 10° SSW 19:43:50 65° ESE 19:46:44 22° NE
SL-8 R/B 3.9 19:40:37 10° WSW 19:45:26 69° NNW 19:47:49 29° NE
Meteor 2-10 4.2 19:42:24 10° SSE 19:47:07 43° E 19:51:55 10° NNE
Cosmos 1452 Rocket 4.4 19:42:38 10° NNW 19:47:43 50° WSW 19:52:45 10° S
Cosmos 1726 1.9 19:45:25 10° S 19:49:05 68° E 19:52:45 10° NNE
Cosmos 2098 Rocket 3.3 19:45:20 10° S 19:49:44 78° E 19:55:27 10° N
Cosmos 2123 Rocket 4.1 19:44:40 10° N 19:50:45 52° ENE 19:56:50 10° SSE
Atlas Centaur 2 4.0 19:49:00 10° SW 19:52:05 17° S 19:54:55 12° SSE
BREEZE-M DEB (TANK) 4.2 19:53:26 10° SW 19:53:47 10° SW 19:54:08 10° SSW
Gbstr 26 Del rocket 3.6 19:50:44 10° NW 19:55:49 74° NNE 19:58:17 37° ESE
Delta 2 Rocket 4.5 19:52:49 10° WSW 19:55:51 24° S 19:56:09 24° S
Cosmos 1605 Rocket 4.2 19:51:02 10° SSE 19:56:44 43° E 20:02:24 10° NNE
CSL-04 DEB 4.4 19:56:23 52° ESE 19:56:57 57° ENE 20:00:55 10° N
Aureole 2 Rocket 2.6 19:54:04 10° NNW 19:57:56 64° ENE 19:58:14 61° E
Spot 2 Rocket 4.4 20:00:23 30° NE 20:00:23 30° NE 20:03:59 10° N
Cosmos 2221 3.2 19:55:43 10° SSW 19:59:56 55° W 20:04:14 10° N
Cosmos 2333 4.2 19:54:26 10° NNW 20:00:11 83° WSW 20:05:29 12° SSE
USA 234 4.2 20:02:15 25° NE 20:04:44 33° NNE 20:10:26 10° NW
CZ-4C R/B 2.0 20:00:05 10° SSW 20:05:15 77° ESE 20:08:30 27° NE
Cosmos 1110 Rocket 4.1 20:01:50 10° NNW 20:07:04 54° ENE 20:07:45 51° E
BREEZE-M DEB (TANK) 4.2 20:06:16 10° WNW 20:07:09 19° WNW 20:07:09 19° WNW
H-2A R/B 3.0 20:07:33 21° S 20:10:04 67° W 20:14:00 10° NNW
Iridium 4 Rocket 4.3 20:06:47 10° SSW 20:12:14 58° W 20:18:02 10° N
In-Cosmos 22 Rocket 4.2 20:07:13 10° N 20:12:56 67° ENE 20:15:17 36° SSE
Cosmos 2237 Rocket 2.4 20:07:32 10° NNW 20:13:03 46° ENE 20:13:12 46° ENE
Cosmos 2084 4.2 20:11:08 10° NNW 20:13:42 37° N 20:13:42 37° N
Cosmos 2227 Rocket 3.9 20:15:56 10° S 20:17:27 18° SSE 20:17:27 18° SSE
Resurs 01 Rocket 2.8 20:23:46 30° N 20:23:46 30° N 20:26:10 10° N
SL-16 R/B 3.6 20:18:34 10° N 20:21:48 23° NNE 20:21:48 23° NNE
Meteor 2-3 Rocket 4.4 20:18:39 10° N 20:22:51 39° NE 20:22:51 39° NE
ALOS 4.3 20:21:12 10° SSW 20:25:10 27° W 20:29:10 10° NW
Envisat 3.5 20:35:33 47° N 20:35:33 47° N 20:39:16 10° N
Cosmos 1980 3.6 20:31:02 10° NNW 20:36:26 73° NE 20:36:26 73° NE
NOSS 0 Rocket 3.8 20:30:34 10° NNW 20:36:46 86° WSW 20:37:56 61° SSE
Meteor 2-2 Rocket 4.1 20:32:53 10° S 20:38:37 88° WNW 20:44:17 10° N
COSMOS 2428 4.0 20:33:56 10° NW 20:39:08 38° WSW 20:44:03 11° S
Cosmos 2333 Rocket 2.4 20:36:53 10° NNW 20:42:37 70° WSW 20:43:38 57° SSW
Sich 1 4.2 20:39:19 10° NNW 20:43:25 41° W 20:44:35 34° SW
Cosmos 2219 4.1 20:42:19 10° SW 20:47:50 47° WNW 20:53:22 10° NNE
BREEZE-M DEB (TANK) 3.5 20:46:07 10° WNW 20:52:04 52° NW 20:52:04 52° NW
USA 267 3.3 21:12:42 71° WSW 21:12:42 71° WSW 21:18:26 10° SW
Cosmos 2219 Rocket 3.9 21:19:25 10° NW 21:23:59 26° WSW 21:25:03 25° WSW
USA 234 4.2 21:49:37 41° NW 21:49:37 41° NW 21:53:40 10° NW
CZ-4C R/B 4.2 21:50:03 10° W 21:53:44 24° NW 21:53:44 24° NW
Cosmos 2237 Rocket 4.3 21:52:08 10° NW 21:55:03 23° WNW 21:55:03 23° WNW
